Current weather by "City, St" or "zip code"  
 

Current Conditions: Olathe, New Century Aircenter, KS

Fair


55.0 F

Last Updated on Oct 21 2021, 12:53 pm CDT
Humidity: 55%
Wind Speed: NW 10.4 mph
Barometer 30.21 in
Dewpoint: 39.0 F
Visibility: 10.00 mi
Precip: --
Heat Index: NA
Wind Chill: 52 F
Current conditions at:

Olathe, New Century Aircenter, KS (KIXD)

Lat: 38.82444 Lon: 94.88694

Local Radar Image active severe weather and emergency alerts image image weather storm and storm spotter reports image weather observation monitoring service image
Local
Radar
Active
Alerts
Storm Reports Obs
Monitoring

Sign-up For Email & Text Message Weather Alert Notification Services



Advertise Here

Observation History for Olathe, New Century Aircenter, KS


Time Wind
(mph)
Vis
(mi)
Weather Precip (in) Temperature (F) Relative
Humidity
Wind
Chill
(F)
Heat
Index
(F)
Pressure
Air Dwpt altimeter
(in)
sea level
(mb)
Rmks
12:53 pm CDT NW 10.4 10.00 Fair -- 55.0 39.0 55% 52 NA 30.21 1022.7
11:53 am CDT W 12.7 G 19.6 10.00 Fair -- 53.0 39.0 59% 49 NA 30.21 1023.0
10:53 am CDT NW 10.4 8.00 Fair -- 50.0 37.9 63% 46 NA 30.21 1022.8
9:53 am CDT NW 11.5 G 21.9 10.00 Fair -- 48.0 37.0 66% 43 NA 30.19 1022.3
8:53 am CDT NW 11.5 10.00 Fair -- 44.0 36.0 73% 38 NA 30.18 1022.0
7:53 am CDT W 8.1 10.00 Fair -- 42.0 35.1 76% 37 NA 30.16 1021.3
6:53 am CDT W 11.5 10.00 Fair -- 43.0 35.1 74% 37 NA 30.14 1020.5
5:53 am CDT W 9.2 10.00 Fair -- 43.0 36.0 76% 38 NA 30.13 1020.2
4:53 am CDT W 10.4 10.00 Fair -- 44.0 36.0 73% 38 NA 30.12 1019.5
3:53 am CDT W 6.9 10.00 Fair -- 45.0 37.0 74% 41 NA 30.11 1019.4
2:53 am CDT W 11.5 10.00 Fair -- 46.0 37.9 73% 41 NA 30.11 1019.2
1:53 am CDT W 8.1 10.00 Fair -- 47.0 37.9 71% 43 NA 30.10 1019.1
12:53 am CDT W 9.2 10.00 Fair -- 49.0 39.0 69% 45 NA 30.10 1019.0
11:53 pm CDT W 4.6 10.00 Fair -- 48.0 39.0 71% 46 NA 30.10 1018.9
10:53 pm CDT NW 6.9 10.00 Fair -- 51.0 39.9 66% 48 NA 30.10 1018.9
9:53 pm CDT NW 5.8 10.00 Fair -- 52.0 39.9 64% 50 NA 30.08 1018.3
8:53 pm CDT W 5.8 10.00 Fair -- 54.0 41.0 62% 53 NA 30.07 1017.9
7:53 pm CDT W 9.2 10.00 Fair -- 57.0 42.1 58% 55 NA 30.05 1017.4
6:53 pm CDT W 8.1 10.00 Fair -- 60.0 43.0 53% 59 NA 30.03 1016.4
5:53 pm CDT W 9.2 10.00 Fair -- 64.0 43.0 46% NA NA 30.02 1016.0
4:53 pm CDT W 13.8 10.00 Fair -- 67.0 42.1 41% NA NA 30.01 1015.6
3:53 pm CDT W 11.5 10.00 Fair -- 69.0 48.9 49% NA NA 30.00 1015.2
2:53 pm CDT W 11.5 G 18.4 10.00 Fair -- 69.0 51.1 53% NA NA 30.00 1015.3
1:53 pm CDT W 9.2 10.00 Fair -- 66.0 51.1 59% NA NA 30.02 1015.8

Regional Weather Observation


Olathe, New Century Aircenter, KS (KIXD)

Fair
55.0 F

Topeka, Philip Billard Municipal Airport, KS (KTOP)

Fair
56.0 F

Olathe, Johnson County Executive Airport, KS (KOJC)

Fair
54.0 F

Topeka, Forbes Field, KS (KFOE)

Fair
56.0 F

Kansas City, Kansas City Downtown Airport, MO (KMKC)

Fair
55.0 F

Kansas City, Kansas City International Airport, MO (KMCI)

Partly Cloudy
55.0 F

Advertise Here


Advertise Here